Total_Precipitation_Accumulation
0.16 0.19 0.24 0.30 0.41 0.46 0.52 0.59 0.67 0.75 0.72 0.65 0.59 0.49 0.42 0.45 0.46 0.43 0.41 0.35 0.29 0.24 0.18 0.14 0.12 0.08 0.06 0.05 0.05 0.04 0.03 0.03 0.02 0.02 0.02 0.00 0.00 0.01 0.01 0.01 0.01 0.01 0.02
0.12 0.15 0.20 0.25 0.31 0.36 0.39 0.49 0.57 0.68 0.70 0.61 0.63 0.63 0.67 0.69 0.67 0.63 0.52 0.46 0.41 0.35 0.27 0.20 0.18 0.16 0.12 0.09 0.09 0.10 0.08 0.06 0.06 0.07 0.09 0.05 0.02 0.01 0.02 0.02 0.02 0.02 0.03
0.07 0.10 0.13 0.15 0.20 0.26 0.31 0.33 0.42 0.54 0.62 0.72 0.87 0.92 0.89 0.75 0.64 0.55 0.53 0.52 0.51 0.48 0.43 0.36 0.32 0.27 0.23 0.18 0.19 0.19 0.18 0.19 0.20 0.19 0.23 0.21 0.11 0.07 0.03 0.03 0.03 0.03 0.03
0.05 0.07 0.09 0.09 0.11 0.16 0.24 0.30 0.36 0.45 0.53 0.68 0.75 0.76 0.68 0.56 0.50 0.57 0.62 0.63 0.60 0.58 0.54 0.50 0.46 0.41 0.36 0.33 0.34 0.36 0.38 0.38 0.34 0.29 0.27 0.28 0.25 0.26 0.17 0.06 0.04 0.05 0.04
0.03 0.05 0.07 0.08 0.08 0.11 0.17 0.23 0.32 0.40 0.50 0.58 0.63 0.71 0.66 0.58 0.60 0.63 0.59 0.57 0.57 0.57 0.57 0.55 0.54 0.53 0.51 0.51 0.53 0.52 0.52 0.50 0.46 0.41 0.38 0.38 0.35 0.32 0.34 0.21 0.10 0.10 0.11
0.02 0.03 0.06 0.08 0.09 0.11 0.13 0.18 0.24 0.30 0.37 0.45 0.53 0.57 0.62 0.66 0.67 0.63 0.60 0.58 0.60 0.59 0.56 0.57 0.57 0.60 0.58 0.57 0.59 0.61 0.62 0.62 0.61 0.59 0.53 0.52 0.47 0.42 0.47 0.44 0.29 0.25 0.21
0.01 0.02 0.04 0.06 0.07 0.09 0.10 0.13 0.16 0.18 0.25 0.33 0.39 0.44 0.54 0.63 0.62 0.63 0.62 0.60 0.55 0.48 0.48 0.53 0.56 0.59 0.61 0.63 0.64 0.64 0.64 0.69 0.73 0.75 0.72 0.70 0.67 0.64 0.69 0.72 0.59 0.48 0.37
0.01 0.01 0.02 0.03 0.05 0.07 0.07 0.09 0.11 0.14 0.20 0.25 0.30 0.34 0.40 0.50 0.51 0.53 0.51 0.50 0.50 0.51 0.53 0.53 0.53 0.53 0.53 0.53 0.54 0.55 0.55 0.61 0.66 0.70 0.73 0.74 0.71 0.73 0.77 0.85 0.91 0.82 0.62
0.00 0.01 0.01 0.02 0.03 0.04 0.05 0.06 0.08 0.12 0.16 0.19 0.26 0.28 0.29 0.31 0.37 0.44 0.45 0.41 0.41 0.44 0.46 0.47 0.46 0.44 0.43 0.43 0.45 0.46 0.47 0.49 0.53 0.57 0.61 0.65 0.64 0.66 0.70 0.78 0.93 1.06 0.94
0.00 0.00 0.01 0.01 0.01 0.02 0.03 0.05 0.07 0.09 0.13 0.16 0.19 0.21 0.22 0.24 0.27 0.31 0.32 0.30 0.31 0.34 0.36 0.37 0.36 0.35 0.34 0.34 0.34 0.32 0.32 0.34 0.36 0.41 0.46 0.50 0.52 0.56 0.61 0.67 0.74 0.89 0.99
0.00 0.00 0.01 0.01 0.01 0.02 0.03 0.03 0.05 0.07 0.09 0.12 0.14 0.16 0.16 0.18 0.20 0.21 0.23 0.26 0.27 0.27 0.28 0.28 0.28 0.27 0.26 0.25 0.24 0.22 0.22 0.24 0.27 0.30 0.36 0.40 0.44 0.48 0.50 0.54 0.59 0.66 0.77
0.00 0.00 0.01 0.01 0.02 0.03 0.03 0.03 0.04 0.06 0.08 0.10 0.12 0.14 0.16 0.17 0.17 0.17 0.18 0.20 0.22 0.21 0.21 0.21 0.21 0.21 0.21 0.19 0.19 0.19 0.20 0.21 0.21 0.23 0.26 0.29 0.33 0.39 0.44 0.48 0.50 0.51 0.55
0.02 0.01 0.01 0.02 0.02 0.03 0.04 0.05 0.05 0.05 0.06 0.07 0.09 0.11 0.13 0.14 0.15 0.14 0.15 0.16 0.15 0.14 0.13 0.12 0.12 0.14 0.15 0.15 0.15 0.15 0.17 0.18 0.20 0.22 0.27 0.31 0.35 0.40 0.42 0.45 0.46 0.46 0.48
0.04 0.04 0.03 0.04 0.04 0.05 0.05 0.05 0.05 0.05 0.05 0.06 0.08 0.10 0.11 0.12 0.12 0.13 0.14 0.14 0.13 0.12 0.12 0.10 0.10 0.10 0.11 0.12 0.14 0.15 0.17 0.19 0.23 0.26 0.30 0.32 0.34 0.34 0.34 0.35 0.36 0.40 0.42
0.05 0.05 0.05 0.05 0.05 0.04 0.04 0.05 0.05 0.06 0.07 0.08 0.09 0.09 0.10 0.12 0.12 0.13 0.13 0.13 0.11 0.10 0.11 0.12 0.12 0.11 0.12 0.14 0.17 0.19 0.23 0.28 0.31 0.33 0.32 0.30 0.29 0.26 0.25 0.27 0.29 0.31 0.35
0.05 0.04 0.04 0.05 0.05 0.04 0.04 0.05 0.05 0.06 0.08 0.10 0.11 0.11 0.11 0.12 0.13 0.14 0.14 0.13 0.14 0.14 0.14 0.15 0.16 0.18 0.21 0.28 0.27 0.24 0.28 0.33 0.33 0.30 0.27 0.24 0.22 0.19 0.19 0.21 0.22 0.28 0.37
0.05 0.03 0.03 0.04 0.04 0.04 0.05 0.07 0.07 0.08 0.10 0.11 0.12 0.13 0.16 0.18 0.16 0.17 0.20 0.20 0.22 0.25 0.29 0.32 0.31 0.34 0.40 0.42 0.33 0.28 0.24 0.25 0.24 0.22 0.20 0.17 0.15 0.15 0.12 0.11 0.15 0.19 0.27
0.04 0.03 0.03 0.03 0.03 0.03 0.04 0.05 0.06 0.08 0.13 0.18 0.19 0.19 0.21 0.25 0.26 0.26 0.29 0.30 0.33 0.39 0.45 0.47 0.46 0.43 0.42 0.37 0.29 0.23 0.17 0.15 0.12 0.10 0.08 0.07 0.06 0.06 0.10 0.16 0.20 0.15 0.11
0.06 0.04 0.04 0.04 0.04 0.05 0.05 0.05 0.06 0.09 0.15 0.20 0.24 0.23 0.26 0.29 0.33 0.38 0.42 0.41 0.42 0.44 0.45 0.41 0.38 0.34 0.30 0.23 0.15 0.12 0.10 0.09 0.07 0.05 0.04 0.05 0.04 0.06 0.18 0.26 0.26 0.14 0.05
0.09 0.08 0.07 0.07 0.07 0.09 0.11 0.13 0.14 0.16 0.20 0.21 0.25 0.26 0.28 0.33 0.37 0.41 0.46 0.48 0.44 0.40 0.35 0.29 0.23 0.19 0.16 0.13 0.09 0.07 0.05 0.05 0.04 0.04 0.03 0.04 0.05 0.13 0.25 0.26 0.24 0.13 0.06
0.10 0.12 0.14 0.15 0.17 0.19 0.21 0.22 0.23 0.24 0.25 0.26 0.29 0.31 0.32 0.35 0.38 0.40 0.39 0.37 0.32 0.26 0.20 0.16 0.11 0.08 0.06 0.05 0.04 0.04 0.05 0.07 0.08 0.07 0.03 0.02 0.09 0.19 0.24 0.19 0.09 0.10 0.18
0.12 0.14 0.18 0.20 0.23 0.24 0.26 0.27 0.29 0.30 0.29 0.29 0.31 0.32 0.32 0.30 0.26 0.25 0.24 0.21 0.16 0.12 0.09 0.06 0.04 0.03 0.02 0.01 0.01 0.03 0.07 0.11 0.12 0.08 0.05 0.06 0.15 0.16 0.11 0.06 0.06 0.13 0.13
0.13 0.14 0.15 0.15 0.17 0.21 0.26 0.28 0.29 0.28 0.26 0.25 0.26 0.24 0.21 0.18 0.14 0.11 0.09 0.08 0.06 0.05 0.05 0.04 0.02 0.01 0.01 0.00 0.01 0.03 0.09 0.13 0.12 0.09 0.12 0.14 0.11 0.06 0.02 0.03 0.05 0.06 0.05
0.10 0.10 0.11 0.11 0.12 0.13 0.15 0.18 0.19 0.18 0.17 0.15 0.14 0.12 0.11 0.10 0.07 0.05 0.04 0.03 0.03 0.02 0.02 0.02 0.02 0.02 0.01 0.01 0.01 0.05 0.08 0.09 0.10 0.12 0.12 0.08 0.03 0.02 0.02 0.02 0.02 0.03 0.07
0.11 0.08 0.07 0.07 0.07 0.08 0.08 0.09 0.09 0.08 0.07 0.07 0.06 0.05 0.05 0.04 0.04 0.04 0.03 0.03 0.02 0.02 0.02 0.02 0.03 0.03 0.03 0.04 0.10 0.14 0.12 0.15 0.16 0.14 0.05 0.01 0.01 0.02 0.02 0.01 0.01 0.03 0.06
0.12 0.09 0.07 0.06 0.05 0.05 0.05 0.05 0.05 0.05 0.05 0.04 0.04 0.03 0.03 0.03 0.03 0.04 0.04 0.05 0.04 0.04 0.03 0.03 0.03 0.03 0.05 0.08 0.11 0.13 0.17 0.18 0.14 0.08 0.03 0.03 0.03 0.04 0.05 0.05 0.05 0.05 0.08